Location: *
(37.9500°N, 27.3666°E)
Time: 13:19:03
(UTC+00:00)

DMSP B5D1-3 - Pass Details

Date: 24 October 2021
Orbit: 767 x 779 km, 98.5° (Epoch: 02 December)

Event Time Altitude Azimuth Distance (km) Brightness Sun altitude
Rises 16:44:55 0° 17° (NNE) 3,264 7.6 -17.2°
Reaches altitude 10° 16:47:16 10° 21° (NNE) 2,334 6.8 -17.7°
Maximum altitude 16:52:22 61° 101° (E) 885 4.5 -18.7°
Drops below altitude 10° 16:57:26 10° 181° (S) 2,323 7.0 -19.7°
Sets 16:59:46 0° 185° (S) 3,247 7.8 -20.1°
